Location: Lake_James_State_Park
(35.7270°N, 81.9020°W)
Time: 01:08:14
(UTC-04:00)

Daily predictions for brighter satellites

Satellite Brightness Start Highest point End
(mag) Time Altitude Azimuth Time Altitude Azimuth Time Altitude Azimuth
Cosmos 2227 Rocket 4.3 03:53:48 22° ENE 03:53:48 22° ENE 03:56:13 10° NE
Cosmos 2344 4.1 03:57:12 55° NNE 03:57:12 55° NNE 04:03:34 10° NNE
Cosmos 2297 Rocket 4.2 04:01:58 24° ENE 04:01:58 24° ENE 04:05:10 10° NE
Resurs 1-4 Rocket 4.4 04:07:52 10° NNE 04:09:10 18° NNE 04:09:10 18° NNE
Lacrosse 5 3.7 04:27:02 26° NE 04:27:02 26° NE 04:29:15 10° NE
USA 215 3.8 04:20:28 10° SE 04:25:09 50° ESE 04:25:09 50° ESE
FALCON 9 R/B 4.0 04:36:47 29° SSE 04:38:08 31° SE 04:50:03 10° ENE
Cosmos 2333 Rocket 4.2 04:48:09 17° SSE 04:48:09 17° SSE 04:49:23 10° SSE
NOSS 3-2 (C) 4.3 04:36:36 10° NNW 04:44:09 65° NE 04:52:14 10° SE
CZ-4B R/B 4.1 04:52:25 10° NNE 04:56:14 46° ENE 04:56:14 46° ENE
Meteor 1-19 Rocket 4.2 04:59:00 81° E 04:59:00 81° E 05:04:36 10° N
Centaur D-1A AC-35 4.3 05:02:57 18° SSE 05:02:57 18° SSE 05:04:28 10° SE
Cosmos 1025 Rocket 4.4 05:05:15 32° NNE 05:05:15 32° NNE 05:07:38 10° N
Cosmos 1605 Rocket 4.1 04:57:12 10° N 05:02:13 58° NW 05:02:13 58° NW
NOSS 3-4 (A) 3.9 05:05:23 47° NW 05:05:23 47° NW 05:11:10 10° NNE
NOSS 3-4 (C) 3.9 05:05:28 48° NW 05:05:28 48° NW 05:11:17 10° NNE
CZ-4B R/B 3.4 05:00:12 10° NNE 05:05:37 68° ESE 05:07:14 45° SSE
Cosmos 1666 4.3 05:02:11 10° NNE 05:05:44 34° E 05:07:38 21° SE
Cosmos 2237 Rocket 2.0 05:00:21 10° NNW 05:06:00 90° ENE 05:11:37 10° SSE
Cosmos 1339 Rocket 4.4 05:05:17 62° SSW 05:06:26 85° W 05:12:53 10° N
Okean 2 4.4 05:06:40 44° E 05:06:46 44° E 05:10:44 10° NNE
ATLAS 5 CENTAUR R/B 2.5 05:04:00 24° NNW 05:07:57 80° ENE 05:14:30 10° SE
ADEOS II 3.6 05:03:56 10° NNE 05:08:41 34° E 05:13:24 10° SSE
Meteor 2-4 Rocket 3.9 05:07:51 36° S 05:10:18 73° E 05:16:13 10° NNE
Cosmos 2112 Rocket 4.0 05:05:59 10° NNW 05:11:17 79° ENE 05:16:31 10° SSE
Cosmos 1680 Rocket 3.6 05:10:18 10° NNW 05:16:33 60° S 05:20:49 10° SSE
Meteor 1-23 Rocket 4.3 05:14:15 31° S 05:17:04 76° E 05:22:45 10° NNE
Cosmos 1980 4.1 05:21:32 46° SSW 05:21:32 46° SSW 05:25:38 10° S
Okean O Rocket 2.5 05:19:28 10° N 05:22:15 36° NNW 05:22:15 36° NNW
Cosmos 1606 Rocket 3.5 05:19:55 10° N 05:24:18 83° E 05:25:38 44° SSE
SL-16 R/B 2.8 05:20:48 10° NNW 05:26:24 57° ENE 05:31:58 10° SE
Delta 2 Rocket 3.3 05:30:16 68° ESE 05:30:16 68° ESE 05:33:28 10° E
Meteor 2-9 Rocket 4.4 05:24:11 10° N 05:29:52 75° E 05:35:40 10° SSE
CZ-2D R/B 4.2 05:26:52 10° NNW 05:27:41 13° NNW 05:27:41 13° NNW
Cosmos 1726 Rocket 3.4 05:30:33 10° N 05:34:57 88° WSW 05:39:17 10° S
Cosmos 2227 Rocket 3.1 05:35:40 30° NW 05:35:40 30° NW 05:40:12 10° N
Cosmos 2298 Rocket 3.9 05:33:43 37° SSW 05:35:54 82° WNW 05:41:15 10° NNE
GOES 2 Rocket 4.4 05:36:38 36° SW 05:38:22 44° S 05:45:20 10° ESE
Cosmos 2061 Rocket 4.0 05:35:44 10° N 05:42:05 87° E 05:48:28 10° S
Cosmos 2100 Rocket 3.9 05:36:05 10° N 05:42:20 83° W 05:48:39 10° S
Cosmos 1802 Rocket 4.0 05:37:35 10° N 05:43:46 79° E 05:49:53 10° S
RESURS DK-1 4.0 05:45:28 20° NNW 05:45:28 20° NNW 05:47:33 10° N
Cosmos 1892 Rocket 3.6 05:43:29 50° WSW 05:44:12 57° W 05:48:38 10° N
Cosmos 2297 Rocket 2.8 05:43:49 35° WNW 05:44:19 36° WNW 05:49:31 10° N
Cosmos 1346 Rocket 3.5 05:45:29 37° NW 05:45:29 37° NW 05:48:26 10° N
Thor Agena Rocket 3.5 05:41:26 10° SSE 05:46:43 86° WSW 05:52:03 10° NNW
Aureole 2 Rocket 3.3 05:46:16 10° N 05:49:33 46° ENE 05:52:31 10° SE
Cosmos 2150 Rocket 3.9 05:47:14 27° SSW 05:50:04 69° WNW 05:55:13 10° NNE
Cosmos 990 Rocket 4.3 05:45:22 10° S 05:50:33 66° ESE 05:55:46 10° NNE
CZ-2C R/B 4.2 05:51:40 36° WNW 05:51:40 36° WNW 05:55:17 10° NNW
PSLV R/B 3.4 05:48:00 10° N 05:52:19 72° WNW 05:55:25 18° SSW
Tiangong 1 2.9 05:53:54 20° NNW 05:54:18 21° N 05:56:42 10° NE
NOSS 3-2 (A) 4.4 05:49:18 10° NW 05:56:18 38° WSW 06:03:39 10° S
MOS 1 Rocket 3.9 05:53:19 10° NNE 05:58:10 63° E 06:03:16 10° S
Cosmos 2228 2.9 05:58:50 10° N 06:03:14 81° W 06:07:34 10° S
COBE Rocket 4.0 06:00:10 10° NNE 06:04:55 72° E 06:09:34 10° S
Cosmos 292 Rocket 4.0 06:02:05 10° NNW 06:06:43 45° WSW 06:11:19 10° S
Lacrosse 5 3.6 06:06:15 15° NW 06:07:47 17° NNW 06:11:03 10° N
USA 215 4.2 06:05:18 10° S 06:10:21 24° WSW 06:12:33 20° W
Cosmos 2098 Rocket 3.1 06:06:57 10° N 06:11:04 81° W 06:16:23 10° S
OTV 4 1.9 06:16:00 20° SSW 06:16:00 20° SSW 06:18:04 10° SSE
Cosmos 2016 Rocket 4.0 06:10:15 10° NNW 06:16:32 67° W 06:22:42 10° S
DELTA 2 R/B (1) 3.8 06:13:35 21° W 06:17:19 63° N 06:22:52 10° ENE
Cosmos 1898 Rocket 4.2 06:14:55 18° WSW 06:18:14 34° WNW 06:23:03 10° N
CZ-4B R/B 3.6 06:15:36 10° N 06:19:30 86° WNW 06:23:13 10° SSW
Cosmos 724 4.5 06:13:30 10° NW 06:19:37 58° WSW 06:25:39 10° S
Cosmos 2263 Rocket 4.4 06:16:05 10° SSE 06:20:40 27° ESE 06:25:15 10° NE
Cosmos 2173 Rocket 4.3 06:16:13 10° NNW 06:21:53 41° W 06:27:35 10° SSW
Cosmos 1125 Rocket 4.5 06:19:45 10° S 06:24:45 51° ESE 06:29:47 10° NNE
SL-08 R/B 4.5 06:18:43 10° NNW 06:24:56 69° W 06:31:13 10° S
Meteor 1-31 Rocket 2.7 06:21:36 10° N 06:25:29 66° WNW 06:29:23 10° SSW
ADEOS Rocket 3.8 06:19:31 10° N 06:25:52 37° WNW 06:31:38 10° SW
Genesis I 3.2 06:22:02 10° SW 06:26:00 71° WNW 06:30:00 10° NNE
Cosmos 2058 Rocket 3.9 06:24:42 10° NNW 06:28:22 27° W 06:32:02 10° SSW
Okean-O 3.3 06:24:51 10° N 06:28:52 35° WNW 06:32:54 10° SW
NOSS 2-2 (D) 3.7 06:26:12 13° SW 06:29:43 49° NW 06:34:10 10° NNE
USA 129 1.3 06:27:47 10° S 06:29:44 55° W 06:31:32 10° NNW
CENTAUR R/B 3.2 06:21:51 10° NNW 06:29:52 90° ENE 06:38:15 10° SSE
Cosmos 1937 Rocket 4.1 06:25:48 10° SW 06:30:36 37° WNW 06:35:28 10° N
Cosmos 2123 Rocket 4.0 06:25:22 10° SSW 06:31:26 62° W 06:37:34 10° N
Centaur D-1AR AC-36 3.7 06:30:36 10° SSW 06:31:39 11° SSW 06:32:39 10° S
OAO 2 Rocket 3.6 06:30:23 13° WSW 06:35:01 69° SSE 06:40:19 10° E
Cosmos 1515 4.0 06:33:45 10° SSW 06:37:24 42° W 06:41:03 10° N
COSMO-SKYMED 1 3.2 06:33:22 10° SSE 06:37:38 62° ENE 06:41:56 10° N
Cosmos 1825 Rocket 4.1 06:37:40 10° S 06:42:02 63° E 06:46:22 10° NNE
NOAA 6 4.0 06:37:37 10° N 06:42:47 68° WNW 06:47:55 10° SSW
OE (NEXTSAT) 4.4 06:40:24 10° WNW 06:44:02 79° SW 06:47:39 10° SE
NOSS 2-2 (C) 4.3 06:41:25 10° WSW 06:45:11 34° NW 06:49:26 10° NNE
Intercosmos 25 Rocket 3.8 06:41:25 10° N 06:45:13 86° E 06:51:07 10° S
NOSS 2-2 (E) 4.5 06:43:08 10° WSW 06:46:51 31° NW 06:51:03 10° NNE
ADEOS II 3.1 06:43:56 10° NNW 06:48:13 26° WNW 06:52:29 10° WSW
EXPRESS MD2 4.2 06:44:27 10° NW 06:48:14 80° NE 06:56:18 10° SE
Cosmos 1340 2.6 06:47:05 10° SSW 06:50:49 63° W 06:54:35 10° N
ATLAS 5 CENTAUR R/B 3.9 06:48:33 10° WNW 06:52:09 16° WSW 06:55:48 10° SW
Radarsat Rocket 4.2 06:55:59 10° N 07:02:31 60° WNW 07:08:23 10° SSW
